Location: *
(58.4167°N, 22.5000°E)
Time: 10:18:19
(UTC+00:00)

Cosmos 2084 Rocket - Pass Details

Date: 22 September 2019
Orbit: 571 x 610 km, 62.8° (Epoch: 18 October)

Event Time Altitude Azimuth Distance (km) Brightness Sun altitude
Rises 19:27:56 0° 237° (WSW) 2,868 7.2 -22.1°
Reaches altitude 10° 19:30:12 10° 237° (WSW) 1,967 6.3 -22.3°
Maximum altitude 19:34:40 88° 147° (SSE) 619 3.4 -22.7°
Enters shadow 19:35:37 56° 63° (ENE) 733 3.7 -22.8°
